This demonstration page uses our WeatherBlox Daily Observations layout. Learn more.

Left ArrowRight Arrow

Hourly Observations for July 5, 2016

Temp ( °F °C ) Dew Point ( °F °C ) Humidity (%) Winds ( mph kmh ) Pressure ( in mb ) Visibility ( mi km ) Precip ( " mm )
12:53 am 00:53 Clear 72 22.2 69 20.6 91 91 S 6 9 29.79 1009 10 16 0.00 0.00
1:53 am 01:53 Clear 71 21.7 69 20.6 94 94 undefined N/A 29.78 1008 10 16 0.00 0.00
2:53 am 02:53 Clear 71 21.7 69 20.6 94 94 S 7 11 29.76 1008 10 16 0.00 0.00
3:53 am 03:53 Clear 71 21.7 69 20.6 94 94 SSE 5 7 29.75 1008 10 16 0.00 0.00
4:53 am 04:53 Clear 71 21.7 69 20.6 94 94 SSE 7 11 29.74 1007 10 16 0.00 0.00
5:53 am 05:53 Clear 70 21.1 69 20.6 97 97 S 7 11 29.75 1007 8 13 0.00 0.00
6:53 am 06:53 Sunny with Mist and Fog 69 20.6 68 20 96 96 S 7 11 29.76 1008 4 6 0.00 0.00
7:53 am 07:53 Sunny 72 22.2 70 21.1 94 94 S 7 11 29.74 1007 7 11 0.00 0.00
8:53 am 08:53 Sunny 75 23.9 71 21.7 88 88 S 8 13 29.74 1007 10 16 0.00 0.00
9:53 am 09:53 Sunny 79 26.1 71 21.7 77 77 SSW 6 9 29.74 1007 10 16 0.00 0.00
10:53 am 10:53 Sunny 81 27.2 72 22.2 74 74 SSW 8 13 29.74 1007 10 16 0.00 0.00
11:53 am 11:53 Sunny 83 28.3 71 21.7 67 67 SSW 7 11 29.75 1008 10 16 0.00 0.00
12:53 pm 12:53 Sunny 89 31.7 73 22.8 59 59 SSW 8 13 29.75 1007 10 16 0.00 0.00
1:53 pm 13:53 Sunny 94 34.4 63 17.2 36 36 SSW 9 15 29.72 1007 10 16 0.00 0.00
2:53 pm 14:53 Sunny 96 35.6 66 18.9 37 37 S 8 13 29.72 1006 10 16 0.00 0.00
3:53 pm 15:53 Sunny 97 36.1 69 20.6 40 40 SSE 8 13 29.71 1006 10 16 0.00 0.00
4:53 pm 16:53 Sunny 98 36.7 66 18.9 35 35 SSE 7 11 29.68 1005 10 16 0.00 0.00
5:38 pm 17:38 Partly Cloudy with Nearby Thunderstorms 93 34 68 20 44 44 ESE 5 7 29.56 1001 10 16 0.00 0.00
5:53 pm 17:53 Mostly Cloudy with Thunderstorms 91 32.8 72 22.2 54 54 VRB 7 11 29.70 1006 4 6 0.05 1.27
5:55 pm 17:55 Mostly Cloudy with Strong Thunderstorms 88 31.1 71 21.7 57 57 undefined N/A 29.59 1002 1 2 0.08 2.03
6:03 pm 18:03 Cloudy with Strong Thunderstorms 79 26 68 20 70 70 N 24 39 29.65 1004 1 1 0.00 0.00
6:07 pm 18:07 Windy with Storms Likely 79 26.1 68 20 69 69 N 21 33 29.62 1003 2 3 0.20 5.08
6:14 pm 18:14 Cloudy with Thunderstorms 79 26 70 21 74 74 NNE 17 28 29.62 1003 10 16 0.00 0.00
6:53 pm 18:53 Cloudy with Thunderstorms 75 23.9 69 20.6 82 82 NE 14 22 29.71 1006 10 16 0.22 5.59
7:24 pm 19:24 Cloudy with Thunderstorms 72 22 66 19 83 83 N 18 30 29.74 1007 6 10 0.00 0.00
7:53 pm 19:53 Cloudy with Light Rain 77 25 63 17.2 62 62 SSE 6 9 29.72 1006 10 16 0.17 4.32
8:22 pm 20:22 Partly Cloudy with Thunderstorms 79 26 63 17 58 58 S 6 9 29.65 1004 10 16 0.00 0.00
8:37 pm 20:37 Sunny 77 25 65 18.3 66 66 SW 5 7 29.65 1004 10 16 0.00 0.03
8:53 pm 20:53 Sunny 74 23.3 67 19.4 79 79 NW 5 7 29.71 1006 10 16 0.00 0.03
9:53 pm 21:53 Clear 72 22.2 65 18.3 79 79 ENE 8 13 29.75 1007 10 16 0.00 0.00
10:53 pm 22:53 Clear 74 23.3 64 17.8 71 71 Calm 29.75 1007 10 16 0.00 0.00
11:53 pm 23:53 Partly Cloudy with Light Rain 74 23.3 65 18.3 74 74 SE 6 9 29.72 1007 10 16 0.00 0.03

Powered by AerisWeather